Tracking 29088 objects as of 13-Jul-2024
HD Live streaming from Space Station
objects crossing your sky now

STARLINK-32137

Track STARLINK-32137 now!
10-day predictions
STARLINK-32137 is classified as:


NORAD ID: 60155
Int'l Code: 2024-120W
Perigee: 332.2 km
Apogee: 333.2 km
Inclination: 53.1 °
Period: 91.0 minutes
Semi major axis: 6703 km
RCS: Unknown
Launch date: June 27, 2024
Source: United States (US)
Launch site: AIR FORCE EASTERN TEST RANGE (AFETR)
Your satellite tracking list
Your tracking list is empty




NASA's NSSDC Master Catalog

Two Line Element Set (TLE):
1 60155U 24120W   24194.91667824 -.00991300  00000-0 -54071-2 0  9992
2 60155  53.1481 262.6773 0000740  66.0566 201.4886 15.81731761  3534
Source of the keplerian elements: AFSPC